| time (UTC) | temp F | wind direction | speed knots | gust knots | rain 1hr in | rain 24hr in | rain mn in | humidity % | barometer mb |
| 20260508082908 | 43 | 200 | 0.0 | 0.0 | 0.00 | 0.03 | 0.03 | 74 | 1022.9 |
| 20260508082406 | 41 | 275 | 0.0 | 0.0 | 0.00 | 0.03 | 0.03 | 76 | 1022.7 |
| 20260508081904 | 41 | 297 | 0.9 | 2.6 | 0.00 | 0.03 | 0.03 | 77 | 1022.8 |
| 20260508081400 | 41 | 84 | 1.7 | 1.7 | 0.00 | 0.03 | 0.03 | 77 | 1022.6 |
| 20260508080857 | 40 | 278 | 0.0 | 1.7 | 0.07 | 0.03 | 0.03 | 79 | 1022.7 |
| 20260508080355 | 40 | 341 | 0.0 | 0.0 | 0.07 | 0.03 | 0.03 | 80 | 1022.7 |
| 20260508075851 | 39 | 126 | 1.7 | 2.6 | 0.00 | 0.02 | 0.02 | 81 | 1022.4 |
| 20260508075348 | 40 | 78 | 2.6 | 6.1 | 0.00 | 0.02 | 0.02 | 80 | 1022.5 |
| 20260508074846 | 40 | 127 | 1.7 | 5.2 | 0.00 | 0.02 | 0.02 | 79 | 1022.5 |
| 20260508074343 | 40 | 86 | 5.2 | 7.8 | 0.00 | 0.02 | 0.02 | 81 | 1022.6 |
| 20260508073840 | 39 | 217 | 2.6 | 6.1 | 0.00 | 0.02 | 0.02 | 82 | 1022.5 |
| 20260508073338 | 39 | 153 | 5.2 | 7.0 | 0.00 | 0.02 | 0.02 | 81 | 1022.5 |
| 20260508072834 | 40 | 27 | 0.9 | 7.0 | 0.00 | 0.02 | 0.02 | 79 | 1022.3 |
| 20260508072331 | 40 | 109 | 4.3 | 7.8 | 0.00 | 0.02 | 0.02 | 77 | 1022.4 |
| 20260508071828 | 41 | 106 | 1.7 | 7.8 | 0.00 | 0.02 | 0.02 | 75 | 1022.4 |
| 20260508071326 | 42 | 305 | 0.9 | 6.1 | 0.00 | 0.02 | 0.02 | 71 | 1021.9 |
| 20260508070824 | 42 | 219 | 4.3 | 7.0 | 0.00 | 0.02 | 0.02 | 69 | 1021.9 |
| 20260508070322 | 43 | 307 | 0.9 | 2.6 | 0.00 | 0.02 | 0.02 | 66 | 1021.9 |
| 20260508065819 | 44 | 249 | 0.9 | 2.6 | 0.00 | 0.02 | 0.02 | 67 | 1021.7 |
| 20260508065317 | 43 | 80 | 0.0 | 1.7 | 0.00 | 0.02 | 0.02 | 66 | 1021.8 |
| 20260508064815 | 42 | 208 | 0.0 | 1.7 | 0.00 | 0.02 | 0.02 | 69 | 1021.8 |
| 20260508064312 | 42 | 301 | 0.9 | 1.7 | 0.00 | 0.02 | 0.02 | 68 | 1021.6 |
| 20260508063809 | 42 | 245 | 1.7 | 1.7 | 0.00 | 0.02 | 0.02 | 72 | 1021.5 |
| 20260508063307 | 42 | 94 | 0.9 | 2.6 | 0.00 | 0.02 | 0.02 | 68 | 1021.6 |
| 20260508062804 | 42 | 130 | 1.7 | 2.6 | 0.00 | 0.02 | 0.02 | 67 | 1021.6 |
| 20260508062305 | 41 | 99 | 0.9 | 2.6 | 0.00 | 0.02 | 0.02 | 73 | 1021.4 |
| 20260508061758 | 40 | 139 | 1.7 | 1.7 | 0.00 | 0.02 | 0.02 | 77 | 1021.6 |
| 20260508061255 | 40 | 164 | 0.0 | 0.0 | 0.00 | 0.02 | 0.02 | 78 | 1021.4 |
| 20260508060752 | 40 | 78 | 3.5 | 5.2 | 0.00 | 0.02 | 0.02 | 74 | 1021.6 |
| 20260508060250 | 40 | 167 | 2.6 | 7.0 | 0.00 | 0.02 | 0.02 | 75 | 1021.4 |
| 20260508055745 | 40 | 132 | 1.7 | 2.6 | 0.00 | 0.02 | 0.02 | 76 | 1021.4 |
| 20260508055242 | 40 | 132 | 1.7 | 2.6 | 0.00 | 0.02 | 0.02 | 76 | 1021.3 |
| 20260508054739 | 40 | 155 | 1.7 | 3.5 | 0.00 | 0.02 | 0.02 | 77 | 1021.3 |
| 20260508054237 | 39 | 145 | 3.5 | 6.1 | 0.00 | 0.02 | 0.02 | 77 | 1021.4 |
| 20260508053734 | 39 | 128 | 1.7 | 7.0 | 0.00 | 0.02 | 0.02 | 78 | 1021.4 |
| 20260508053231 | 39 | 135 | 3.5 | 6.1 | 0.00 | 0.02 | 0.02 | 79 | 1021.4 |
| 20260508052728 | 38 | 124 | 6.1 | 7.8 | 0.00 | 0.02 | 0.02 | 80 | 1021.3 |
| 20260508052225 | 38 | 90 | 3.5 | 7.0 | 0.00 | 0.02 | 0.02 | 82 | 1021.2 |
| 20260508051721 | 38 | 107 | 2.6 | 5.2 | 0.00 | 0.02 | 0.02 | 84 | 1021.2 |
| 20260508051217 | 38 | 111 | 5.2 | 7.8 | 0.00 | 0.02 | 0.02 | 84 | 1021.2 |
| 20260508050713 | 37 | 138 | 1.7 | 7.0 | 0.00 | 0.02 | 0.02 | 87 | 1021.1 |
| 20260508050211 | 38 | 219 | 1.7 | 2.6 | 0.00 | 0.02 | 0.02 | 87 | 1021.0 |
| 20260508045706 | 37 | 69 | 0.0 | 0.0 | 0.00 | 0.02 | 0.02 | 87 | 1020.9 |
| 20260508045204 | 37 | 87 | 0.0 | 0.0 | 0.00 | 0.02 | 0.02 | 88 | 1021.0 |
| 20260508044701 | 38 | 80 | 0.0 | 0.0 | 0.00 | 0.02 | 0.02 | 89 | 1021.1 |
| 20260508044158 | 37 | 78 | 0.0 | 0.0 | 0.00 | 0.02 | 0.02 | 90 | 1021.0 |
| 20260508043654 | 36 | 43 | 0.0 | 0.0 | 0.00 | 0.02 | 0.02 | 91 | 1020.7 |
| 20260508043152 | 36 | 356 | 0.9 | 0.9 | 0.00 | 0.02 | 0.02 | 92 | 1020.7 |
| 20260508042648 | 36 | 25 | 0.9 | 1.7 | 0.00 | 0.02 | 0.02 | 92 | 1020.9 |
| 20260508042146 | 36 | 42 | 0.0 | 0.0 | 0.00 | 0.02 | 0.02 | 92 | 1020.8 |
| 20260508041642 | 35 | 62 | 0.0 | 0.0 | 0.00 | 0.02 | 0.02 | 92 | 1020.7 |
| 20260508041139 | 35 | 64 | 0.9 | 0.9 | 0.00 | 0.02 | 0.02 | 92 | 1020.8 |
| 20260508040635 | 35 | 29 | 0.0 | 0.0 | 0.00 | 0.02 | 0.02 | 92 | 1020.8 |
| 20260508040133 | 35 | 35 | 0.0 | 0.0 | 0.00 | 0.02 | 0.02 | 92 | 1020.8 |
| 20260508035630 | 35 | 324 | 0.0 | 0.0 | 0.05 | 0.02 | 0.02 | 92 | 1020.6 |
| 20260508035127 | 35 | 21 | 0.0 | 0.0 | 0.05 | 0.02 | 0.02 | 92 | 1020.6 |
| 20260508034624 | 35 | 31 | 0.0 | 0.9 | 0.00 | 0.01 | 0.01 | 92 | 1020.5 |
| 20260508034121 | 35 | 54 | 0.0 | 0.9 | 0.00 | 0.01 | 0.01 | 92 | 1020.5 |
| 20260508033618 | 35 | 116 | 0.0 | 0.9 | 0.00 | 0.01 | 0.01 | 92 | 1020.5 |
| 20260508033116 | 34 | 74 | 0.9 | 1.7 | 0.07 | 0.01 | 0.01 | 92 | 1020.6 |
| 20260508032612 | 34 | 50 | 1.7 | 1.7 | 0.07 | 0.01 | 0.01 | 92 | 1020.6 |
| 20260508032110 | 34 | 58 | 1.7 | 1.7 | 0.00 | 0.00 | 0.00 | 92 | 1020.6 |
| 20260508031607 | 34 | 76 | 1.7 | 1.7 | 0.00 | 0.00 | 0.00 | 92 | 1020.5 |
| 20260508031103 | 34 | 52 | 1.7 | 1.7 | 0.00 | 0.00 | 0.00 | 92 | 1020.5 |
| 20260508030559 | 34 | 76 | 0.9 | 1.7 | 0.00 | 0.00 | 0.00 | 91 | 1020.4 |
| 20260508030058 | 34 | 21 | 1.7 | 2.6 | 0.00 | 0.00 | 0.00 | 91 | 1020.2 |
| 20260508025553 | 34 | 339 | 1.7 | 3.5 | 0.00 | 0.00 | 0.00 | 91 | 1020.5 |
| 20260508025051 | 34 | 327 | 1.7 | 1.7 | 0.00 | 0.00 | 0.00 | 91 | 1020.6 |
| 20260508024546 | 34 | 348 | 0.9 | 1.7 | 0.00 | 0.00 | 0.00 | 90 | 1020.5 |
| 20260508024044 | 34 | 357 | 2.6 | 2.6 | 0.00 | 0.00 | 0.00 | 90 | 1020.3 |
| 20260508023540 | 34 | 350 | 1.7 | 2.6 | 0.00 | 0.00 | 0.00 | 89 | 1020.4 |
| 20260508023038 | 34 | 350 | 1.7 | 2.6 | 0.00 | 0.00 | 0.00 | 87 | 1020.3 |
| 20260508022533 | 34 | 67 | 1.7 | 2.6 | 0.00 | 0.00 | 0.00 | 86 | 1020.5 |
| 20260508022031 | 34 | 20 | 0.0 | 0.0 | 0.00 | 0.00 | 0.00 | 84 | 1020.6 |
| 20260508021526 | 34 | 136 | 0.0 | 1.7 | 0.00 | 0.00 | 0.00 | 82 | 1020.4 |
| 20260508021022 | 34 | 85 | 0.0 | 0.9 | 0.00 | 0.00 | 0.00 | 82 | 1020.2 |
| 20260508020520 | 34 | 346 | 0.0 | 0.9 | 0.00 | 0.00 | 0.00 | 82 | 1020.1 |
| 20260508020018 | 34 | 24 | 1.7 | 1.7 | 0.00 | 0.00 | 0.00 | 82 | 1020.0 |
| 20260508015515 | 34 | 359 | 0.0 | 0.9 | 0.00 | 0.00 | 0.00 | 82 | 1020.1 |
| 20260508015012 | 34 | 34 | 2.6 | 2.6 | 0.00 | 0.00 | 0.00 | 83 | 1019.9 |
| 20260508014508 | 33 | 9 | 0.0 | 0.0 | 0.00 | 0.00 | 0.00 | 84 | 1019.8 |
| 20260508014005 | 33 | 7 | 0.0 | 0.0 | 0.00 | 0.00 | 0.00 | 84 | 1019.9 |
| 20260508013501 | 32 | 10 | 0.9 | 1.7 | 0.00 | 0.00 | 0.00 | 84 | 1019.9 |
| 20260508012958 | 33 | 330 | 0.0 | 2.6 | 0.00 | 0.00 | 0.00 | 82 | 1019.9 |
| 20260508012455 | 33 | 345 | 2.6 | 3.5 | 0.00 | 0.00 | 0.00 | 83 | 1019.7 |
| 20260508011952 | 33 | 12 | 2.6 | 2.6 | 0.00 | 0.00 | 0.00 | 83 | 1019.8 |
| 20260508011450 | 32 | 19 | 0.9 | 1.7 | 0.00 | 0.00 | 0.00 | 83 | 1019.6 |
| 20260508010947 | 33 | 280 | 0.0 | 2.6 | 0.00 | 0.00 | 0.00 | 81 | 1019.7 |
| 20260508010444 | 33 | 37 | 1.7 | 3.5 | 0.00 | 0.00 | 0.00 | 81 | 1019.6 |
| 20260508005942 | 34 | 11 | 1.7 | 2.6 | 0.00 | 0.00 | 0.00 | 81 | 1019.5 |
| 20260508005438 | 34 | 39 | 2.6 | 2.6 | 0.00 | 0.00 | 0.00 | 81 | 1019.5 |
| 20260508004935 | 34 | 34 | 2.6 | 2.6 | 0.00 | 0.00 | 0.00 | 81 | 1019.3 |
| 20260508004431 | 34 | 3 | 2.6 | 3.5 | 0.00 | 0.00 | 0.00 | 83 | 1019.3 |
| 20260508003928 | 33 | 87 | 1.7 | 2.6 | 0.00 | 0.00 | 0.00 | 83 | 1019.5 |
| 20260508003424 | 33 | 43 | 0.9 | 1.7 | 0.00 | 0.00 | 0.00 | 82 | 1019.2 |
| 20260508002922 | 33 | 345 | 1.7 | 2.6 | 0.00 | 0.00 | 0.00 | 82 | 1019.4 |
| 20260508002418 | 33 | 0 | 1.7 | 1.7 | 0.00 | 0.00 | 0.00 | 83 | 1019.4 |
| 20260508001914 | 33 | 33 | 1.7 | 1.7 | 0.00 | 0.00 | 0.00 | 83 | 1019.2 |
| 20260508001411 | 33 | 131 | 0.0 | 0.0 | 0.00 | 0.00 | 0.00 | 82 | 1019.2 |
| 20260508000907 | 35 | 285 | 0.0 | 1.7 | 0.00 | 0.00 | 0.00 | 81 | 1019.0 |
| 20260508000405 | 35 | 7 | 0.9 | 2.6 | 0.00 | 0.00 | 0.00 | 80 | 1019.0 |
| 20260507235900 | 34 | 342 | 1.7 | 1.7 | 0.00 | 0.00 | 0.00 | 80 | 1018.9 |
| 20260507235358 | 34 | 341 | 0.9 | 1.7 | 0.00 | 0.00 | 0.00 | 80 | 1019.0 |
| 20260507234854 | 34 | 351 | 0.0 | 0.9 | 0.00 | 0.00 | 0.00 | 79 | 1019.0 |
| 20260507234351 | 35 | 341 | 0.9 | 1.7 | 0.00 | 0.00 | 0.00 | 78 | 1018.8 |
| 20260507233848 | 35 | 33 | 0.9 | 1.7 | 0.00 | 0.00 | 0.00 | 78 | 1018.9 |
| 20260507233345 | 34 | 0 | 0.9 | 1.7 | 0.00 | 0.00 | 0.00 | 79 | 1018.7 |
| 20260507232843 | 34 | 31 | 1.7 | 2.6 | 0.00 | 0.00 | 0.00 | 80 | 1018.9 |
| 20260507232339 | 34 | 345 | 0.0 | 0.0 | 0.00 | 0.00 | 0.00 | 80 | 1018.7 |
| 20260507231837 | 33 | 0 | 0.9 | 2.6 | 0.00 | 0.00 | 0.00 | 79 | 1018.8 |
| 20260507231333 | 35 | 331 | 2.6 | 2.6 | 0.00 | 0.00 | 0.00 | 77 | 1018.7 |
| 20260507230829 | 34 | 19 | 1.7 | 2.6 | 0.00 | 0.00 | 0.00 | 77 | 1018.6 |
| 20260507230327 | 34 | 357 | 1.7 | 3.5 | 0.00 | 0.00 | 0.00 | 77 | 1018.5 |
| 20260507225827 | 34 | 39 | 2.6 | 2.6 | 0.00 | 0.00 | 0.00 | 78 | 1018.9 |
| 20260507225323 | 34 | 19 | 1.7 | 2.6 | 0.00 | 0.00 | 0.00 | 80 | 1018.7 |
| 20260507224819 | 33 | 39 | 1.7 | 3.5 | 0.00 | 0.00 | 0.00 | 81 | 1018.5 |
| 20260507224316 | 34 | 11 | 0.9 | 0.9 | 0.00 | 0.00 | 0.00 | 77 | 1018.5 |
| 20260507223812 | 34 | 73 | 0.0 | 0.0 | 0.00 | 0.00 | 0.00 | 77 | 1018.4 |
| 20260507223308 | 35 | 346 | 0.9 | 0.9 | 0.00 | 0.00 | 0.00 | 78 | 1018.5 |
| 20260507222806 | 33 | 36 | 1.7 | 2.6 | 0.00 | 0.00 | 0.00 | 79 | 1018.4 |
| 20260507222305 | 33 | 346 | 2.6 | 3.5 | 0.00 | 0.00 | 0.00 | 78 | 1018.4 |
| 20260507221759 | 34 | 19 | 2.6 | 2.6 | 0.00 | 0.00 | 0.00 | 77 | 1018.4 |
| 20260507221255 | 35 | 54 | 1.7 | 2.6 | 0.00 | 0.00 | 0.00 | 76 | 1018.3 |
| 20260507220752 | 35 | 21 | 0.0 | 0.9 | 0.00 | 0.00 | 0.00 | 76 | 1018.3 |
| 20260507220250 | 35 | 71 | 1.7 | 2.6 | 0.00 | 0.00 | 0.00 | 76 | 1018.3 |
| 20260507215746 | 35 | 73 | 1.7 | 2.6 | 0.00 | 0.00 | 0.00 | 76 | 1018.0 |
| 20260507215244 | 35 | 54 | 0.0 | 2.6 | 0.00 | 0.00 | 0.00 | 76 | 1018.0 |
| 20260507214741 | 35 | 26 | 0.9 | 3.5 | 0.00 | 0.00 | 0.00 | 76 | 1018.0 |
| 20260507214238 | 35 | 32 | 1.7 | 2.6 | 0.00 | 0.00 | 0.00 | 76 | 1018.1 |
| 20260507213733 | 35 | 348 | 1.7 | 2.6 | 0.00 | 0.00 | 0.00 | 77 | 1018.2 |
| 20260507213230 | 34 | 59 | 2.6 | 2.6 | 0.00 | 0.00 | 0.00 | 77 | 1018.0 |
| 20260507212726 | 35 | 11 | 1.7 | 2.6 | 0.00 | 0.00 | 0.00 | 77 | 1017.9 |
| 20260507212223 | 35 | 23 | 1.7 | 2.6 | 0.00 | 0.00 | 0.00 | 76 | 1018.1 |
| 20260507211720 | 35 | 347 | 1.7 | 2.6 | 0.00 | 0.00 | 0.00 | 76 | 1018.0 |
| 20260507211216 | 34 | 19 | 0.9 | 2.6 | 0.00 | 0.00 | 0.00 | 76 | 1017.9 |
| 20260507210713 | 36 | 29 | 1.7 | 2.6 | 0.00 | 0.00 | 0.00 | 75 | 1017.8 |
| 20260507210210 | 36 | 19 | 1.7 | 3.5 | 0.00 | 0.00 | 0.00 | 75 | 1017.9 |
| 20260507205706 | 36 | 343 | 2.6 | 5.2 | 0.00 | 0.00 | 0.00 | 74 | 1017.7 |
| 20260507205203 | 36 | 350 | 1.7 | 2.6 | 0.00 | 0.00 | 0.00 | 73 | 1017.6 |
| 20260507204659 | 37 | 358 | 0.9 | 2.6 | 0.00 | 0.00 | 0.00 | 73 | 1017.8 |
| 20260507204157 | 38 | 44 | 0.0 | 0.0 | 0.00 | 0.00 | 0.00 | 70 | 1017.7 |
| 20260507203655 | 37 | 17 | 0.0 | 1.7 | 0.00 | 0.00 | 0.00 | 72 | 1017.7 |
| 20260507203152 | 38 | 30 | 1.7 | 2.6 | 0.00 | 0.00 | 0.00 | 71 | 1017.7 |
| 20260507202647 | 38 | 78 | 0.9 | 1.7 | 0.00 | 0.00 | 0.00 | 70 | 1017.7 |
| 20260507202144 | 37 | 81 | 0.9 | 3.5 | 0.00 | 0.00 | 0.00 | 71 | 1017.5 |
| 20260507201639 | 38 | 50 | 1.7 | 3.5 | 0.00 | 0.00 | 0.00 | 71 | 1017.4 |
| 20260507201136 | 37 | 47 | 0.9 | 3.5 | 0.00 | 0.00 | 0.00 | 73 | 1017.5 |
| 20260507200632 | 38 | 64 | 1.7 | 2.6 | 0.00 | 0.00 | 0.00 | 73 | 1017.5 |
| 20260507200128 | 38 | 78 | 2.6 | 3.5 | 0.00 | 0.00 | 0.00 | 74 | 1017.3 |
| 20260507195625 | 37 | 60 | 0.0 | 0.0 | 0.00 | 0.00 | 0.00 | 75 | 1017.4 |
| 20260507195123 | 38 | 15 | 0.0 | 0.0 | 0.00 | 0.00 | 0.00 | 74 | 1017.2 |
| 20260507194619 | 39 | 352 | 0.0 | 0.0 | 0.00 | 0.00 | 0.00 | 74 | 1017.0 |
| 20260507194115 | 38 | 57 | 0.9 | 2.6 | 0.00 | 0.00 | 0.00 | 75 | 1017.1 |
| 20260507193612 | 39 | 31 | 1.7 | 2.6 | 0.00 | 0.00 | 0.00 | 76 | 1017.2 |
| 20260507193109 | 39 | 42 | 1.7 | 2.6 | 0.00 | 0.00 | 0.00 | 76 | 1017.0 |
| 20260507192605 | 39 | 43 | 1.7 | 2.6 | 0.00 | 0.00 | 0.00 | 76 | 1016.8 |
| 20260507192102 | 39 | 36 | 1.7 | 1.7 | 0.00 | 0.00 | 0.00 | 76 | 1017.1 |
| 20260507191557 | 40 | 16 | 0.9 | 0.9 | 0.00 | 0.00 | 0.00 | 75 | 1017.0 |
| 20260507191055 | 40 | 356 | 1.7 | 1.7 | 0.00 | 0.00 | 0.00 | 75 | 1016.9 |
| 20260507190552 | 40 | 340 | 1.7 | 2.6 | 0.00 | 0.00 | 0.00 | 75 | 1016.8 |
| 20260507190051 | 40 | 352 | 1.7 | 1.7 | 0.00 | 0.00 | 0.00 | 75 | 1016.9 |
| 20260507185549 | 40 | 351 | 2.6 | 3.5 | 0.00 | 0.00 | 0.00 | 75 | 1016.9 |
| 20260507185045 | 40 | 344 | 2.6 | 3.5 | 0.00 | 0.00 | 0.00 | 74 | 1016.8 |
| 20260507184543 | 41 | 338 | 1.7 | 2.6 | 0.00 | 0.00 | 0.00 | 73 | 1016.8 |
| 20260507184041 | 41 | 332 | 0.0 | 0.9 | 0.00 | 0.00 | 0.00 | 71 | 1016.4 |
| 20260507183536 | 41 | 324 | 0.9 | 1.7 | 0.00 | 0.00 | 0.00 | 71 | 1016.6 |
| 20260507183034 | 41 | 332 | 0.9 | 2.6 | 0.00 | 0.00 | 0.00 | 74 | 1016.7 |
| 20260507182530 | 41 | 293 | 1.7 | 3.5 | 0.00 | 0.00 | 0.00 | 74 | 1016.6 |
| 20260507182026 | 41 | 315 | 3.5 | 3.5 | 0.00 | 0.00 | 0.00 | 73 | 1016.6 |
| 20260507181523 | 42 | 338 | 2.6 | 3.5 | 0.00 | 0.00 | 0.00 | 72 | 1016.6 |
| 20260507181020 | 42 | 344 | 1.7 | 3.5 | 0.00 | 0.00 | 0.00 | 72 | 1016.5 |
| 20260507180516 | 43 | 20 | 1.7 | 5.2 | 0.00 | 0.00 | 0.00 | 70 | 1016.4 |
| 20260507180013 | 43 | 297 | 2.6 | 2.6 | 0.00 | 0.00 | 0.00 | 70 | 1016.3 |
| 20260507175509 | 43 | 312 | 4.3 | 6.1 | 0.00 | 0.00 | 0.00 | 70 | 1016.6 |
| 20260507175007 | 43 | 294 | 4.3 | 7.8 | 0.00 | 0.00 | 0.00 | 72 | 1016.2 |
| 20260507174504 | 43 | 276 | 3.5 | 5.2 | 0.00 | 0.00 | 0.00 | 73 | 1016.1 |
| 20260507174001 | 43 | 250 | 2.6 | 3.5 | 0.00 | 0.00 | 0.00 | 72 | 1016.3 |
| 20260507173458 | 44 | 291 | 2.6 | 3.5 | 0.00 | 0.00 | 0.00 | 70 | 1016.1 |
| 20260507172955 | 44 | 243 | 2.6 | 3.5 | 0.00 | 0.00 | 0.00 | 70 | 1016.3 |
| 20260507172451 | 43 | 281 | 1.7 | 3.5 | 0.00 | 0.00 | 0.00 | 70 | 1016.3 |
| 20260507171948 | 43 | 306 | 3.5 | 5.2 | 0.00 | 0.00 | 0.00 | 71 | 1016.2 |
| 20260507171443 | 43 | 293 | 3.5 | 6.1 | 0.00 | 0.00 | 0.00 | 71 | 1016.0 |
| 20260507170941 | 44 | 292 | 4.3 | 7.0 | 0.00 | 0.00 | 0.00 | 69 | 1015.9 |
| 20260507170438 | 44 | 304 | 4.3 | 6.1 | 0.00 | 0.00 | 0.00 | 68 | 1016.1 |
| 20260507165934 | 44 | 291 | 5.2 | 8.7 | 0.00 | 0.00 | 0.00 | 66 | 1015.9 |
| 20260507165430 | 45 | 250 | 1.7 | 2.6 | 0.00 | 0.00 | 0.00 | 61 | 1015.9 |
| 20260507164926 | 46 | 239 | 1.7 | 2.6 | 0.00 | 0.00 | 0.00 | 57 | 1015.9 |
| 20260507164423 | 46 | 231 | 1.7 | 2.6 | 0.00 | 0.00 | 0.00 | 56 | 1015.9 |
| 20260507163920 | 47 | 210 | 1.7 | 2.6 | 0.00 | 0.00 | 0.00 | 56 | 1015.8 |
| 20260507163418 | 46 | 244 | 0.0 | 1.7 | 0.00 | 0.00 | 0.00 | 56 | 1015.9 |
| 20260507162914 | 46 | 240 | 0.9 | 1.7 | 0.00 | 0.00 | 0.00 | 61 | 1015.6 |
| 20260507162409 | 46 | 270 | 1.7 | 1.7 | 0.00 | 0.00 | 0.00 | 58 | 1015.8 |
| 20260507161907 | 46 | 217 | 1.7 | 2.6 | 0.00 | 0.00 | 0.00 | 53 | 1015.8 |
| 20260507161403 | 47 | 186 | 1.7 | 3.5 | 0.00 | 0.00 | 0.00 | 52 | 1015.7 |
| 20260507160900 | 46 | 219 | 0.9 | 2.6 | 0.00 | 0.00 | 0.00 | 55 | 1015.8 |
| 20260507160355 | 45 | 275 | 0.9 | 1.7 | 0.00 | 0.00 | 0.00 | 56 | 1015.8 |
| 20260507155852 | 45 | 244 | 1.7 | 2.6 | 0.00 | 0.00 | 0.00 | 58 | 1015.6 |
| 20260507155348 | 45 | 260 | 0.0 | 0.0 | 0.00 | 0.00 | 0.00 | 58 | 1015.5 |
| 20260507154845 | 45 | 275 | 1.7 | 2.6 | 0.00 | 0.00 | 0.00 | 58 | 1015.5 |
| 20260507154342 | 44 | 307 | 1.7 | 2.6 | 0.00 | 0.00 | 0.00 | 61 | 1015.6 |
| 20260507153839 | 44 | 290 | 1.7 | 3.5 | 0.00 | 0.00 | 0.00 | 61 | 1015.5 |
| 20260507153335 | 44 | 299 | 1.7 | 3.5 | 0.00 | 0.00 | 0.00 | 62 | 1015.6 |
| 20260507152832 | 44 | 286 | 0.9 | 1.7 | 0.00 | 0.00 | 0.00 | 61 | 1015.7 |
| 20260507152328 | 44 | 206 | 1.7 | 5.2 | 0.00 | 0.00 | 0.00 | 60 | 1015.4 |
| 20260507151825 | 44 | 208 | 2.6 | 3.5 | 0.00 | 0.00 | 0.00 | 62 | 1015.8 |
| 20260507151321 | 44 | 238 | 0.0 | 0.0 | 0.00 | 0.00 | 0.00 | 63 | 1015.5 |
| 20260507150818 | 43 | 310 | 0.0 | 0.0 | 0.00 | 0.00 | 0.00 | 63 | 1015.5 |
| 20260507150314 | 44 | 30 | 0.0 | 0.0 | 0.00 | 0.00 | 0.00 | 64 | 1015.6 |
| 20260507145811 | 43 | 103 | 0.0 | 1.7 | 0.00 | 0.00 | 0.00 | 67 | 1015.5 |
| 20260507145307 | 42 | 178 | 1.7 | 1.7 | 0.00 | 0.00 | 0.00 | 70 | 1015.6 |
| 20260507144804 | 42 | 306 | 1.7 | 6.1 | 0.00 | 0.00 | 0.00 | 68 | 1015.7 |
| 20260507144302 | 42 | 269 | 2.6 | 5.2 | 0.00 | 0.00 | 0.00 | 67 | 1015.5 |
| 20260507143758 | 43 | 265 | 2.6 | 3.5 | 0.00 | 0.00 | 0.00 | 62 | 1015.5 |
| 20260507143255 | 43 | 257 | 2.6 | 5.2 | 0.00 | 0.00 | 0.00 | 64 | 1015.3 |
| 20260507142751 | 44 | 309 | 0.0 | 1.7 | 0.00 | 0.00 | 0.00 | 63 | 1015.4 |
| 20260507142248 | 43 | 105 | 0.0 | 0.9 | 0.00 | 0.00 | 0.00 | 64 | 1015.5 |
| 20260507141744 | 43 | 284 | 1.7 | 2.6 | 0.00 | 0.00 | 0.00 | 62 | 1015.6 |
| 20260507141242 | 43 | 241 | 0.9 | 0.9 | 0.00 | 0.00 | 0.00 | 64 | 1015.5 |
| 20260507140737 | 43 | 205 | 1.7 | 1.7 | 0.00 | 0.00 | 0.00 | 64 | 1015.4 |
| 20260507140235 | 43 | 229 | 1.7 | 3.5 | 0.00 | 0.00 | 0.00 | 63 | 1015.3 |
| 20260507135732 | 46 | 219 | 3.5 | 3.5 | 0.00 | 0.00 | 0.00 | 60 | 1015.3 |
| 20260507135230 | 44 | 202 | 0.0 | 2.6 | 0.00 | 0.00 | 0.00 | 60 | 1015.2 |
| 20260507134725 | 46 | 263 | 1.7 | 2.6 | 0.00 | 0.00 | 0.00 | 61 | 1015.2 |
| 20260507134222 | 46 | 309 | 0.9 | 2.6 | 0.00 | 0.00 | 0.00 | 59 | 1015.2 |
| 20260507133718 | 45 | 134 | 1.7 | 2.6 | 0.00 | 0.00 | 0.00 | 61 | 1015.3 |
| 20260507133215 | 44 | 52 | 1.7 | 5.2 | 0.00 | 0.00 | 0.00 | 63 | 1015.1 |
| 20260507132713 | 43 | 128 | 4.3 | 6.1 | 0.00 | 0.00 | 0.00 | 64 | 1015.3 |
| 20260507132209 | 44 | 135 | 3.5 | 3.5 | 0.00 | 0.00 | 0.00 | 63 | 1014.8 |
| 20260507131706 | 43 | 121 | 1.7 | 3.5 | 0.00 | 0.00 | 0.00 | 64 | 1015.2 |
| 20260507131203 | 42 | 349 | 3.5 | 7.0 | 0.00 | 0.00 | 0.00 | 66 | 1015.3 |
| 20260507130700 | 42 | 88 | 2.6 | 6.1 | 0.00 | 0.00 | 0.00 | 66 | 1015.0 |
| 20260507130157 | 42 | 133 | 7.8 | 9.6 | 0.00 | 0.00 | 0.00 | 67 | 1015.2 |
| 20260507125656 | 42 | 119 | 7.0 | 8.7 | 0.00 | 0.00 | 0.00 | 65 | 1015.2 |
| 20260507125153 | 43 | 43 | 3.5 | 7.0 | 0.00 | 0.00 | 0.00 | 64 | 1015.1 |
| 20260507124649 | 43 | 354 | 4.3 | 7.0 | 0.00 | 0.00 | 0.00 | 63 | 1015.1 |
| 20260507124147 | 42 | 178 | 3.5 | 11.3 | 0.00 | 0.00 | 0.00 | 65 | 1014.8 |
| 20260507123645 | 42 | 207 | 3.5 | 8.7 | 0.00 | 0.00 | 0.00 | 64 | 1014.9 |
| 20260507123142 | 43 | 73 | 1.7 | 3.5 | 0.00 | 0.00 | 0.00 | 63 | 1014.9 |
| 20260507122637 | 43 | 328 | 2.6 | 3.5 | 0.00 | 0.00 | 0.00 | 66 | 1014.6 |
| 20260507122133 | 43 | 144 | 3.5 | 7.0 | 0.00 | 0.00 | 0.00 | 65 | 1014.6 |
| 20260507121629 | 43 | 211 | 5.2 | 7.8 | 0.00 | 0.00 | 0.00 | 65 | 1014.8 |
| 20260507121125 | 44 | 210 | 1.7 | 6.1 | 0.00 | 0.00 | 0.00 | 67 | 1014.8 |
| 20260507120622 | 43 | 257 | 2.6 | 5.2 | 0.00 | 0.00 | 0.00 | 66 | 1014.4 |
| 20260507120118 | 43 | 277 | 3.5 | 7.0 | 0.00 | 0.00 | 0.00 | 67 | 1014.4 |
| 20260507115615 | 43 | 285 | 4.3 | 6.1 | 0.00 | 0.00 | 0.00 | 65 | 1014.4 |
| 20260507115111 | 44 | 292 | 2.6 | 3.5 | 0.00 | 0.00 | 0.00 | 66 | 1014.4 |
| 20260507114607 | 44 | 292 | 2.6 | 5.2 | 0.00 | 0.00 | 0.00 | 65 | 1014.4 |
| 20260507114104 | 44 | 239 | 2.6 | 3.5 | 0.00 | 0.00 | 0.00 | 65 | 1014.5 |
| 20260507113601 | 44 | 268 | 6.1 | 8.7 | 0.00 | 0.00 | 0.00 | 65 | 1014.1 |
| 20260507113058 | 44 | 7 | 1.7 | 8.7 | 0.00 | 0.00 | 0.00 | 60 | 1014.3 |
| 20260507112556 | 44 | 179 | 5.2 | 8.7 | 0.00 | 0.00 | 0.00 | 58 | 1014.3 |
| 20260507112053 | 44 | 61 | 3.5 | 7.8 | 0.00 | 0.00 | 0.00 | 58 | 1014.2 |
| 20260507111549 | 44 | 240 | 1.7 | 7.8 | 0.00 | 0.00 | 0.00 | 59 | 1013.9 |
| 20260507111046 | 44 | 249 | 1.7 | 6.1 | 0.00 | 0.00 | 0.00 | 65 | 1013.8 |
| 20260507110543 | 44 | 195 | 1.7 | 3.5 | 0.00 | 0.00 | 0.00 | 63 | 1013.8 |
| 20260507110039 | 43 | 278 | 0.0 | 5.2 | 0.00 | 0.00 | 0.00 | 67 | 1014.0 |
| 20260507105536 | 44 | 261 | 2.6 | 2.6 | 0.00 | 0.00 | 0.00 | 67 | 1013.8 |
| 20260507105032 | 43 | 289 | 1.7 | 2.6 | 0.00 | 0.00 | 0.00 | 71 | 1013.8 |
| 20260507104530 | 43 | 298 | 2.6 | 3.5 | 0.00 | 0.00 | 0.00 | 73 | 1013.8 |
| 20260507104026 | 42 | 269 | 2.6 | 3.5 | 0.00 | 0.00 | 0.00 | 72 | 1013.7 |
| 20260507103522 | 42 | 309 | 3.5 | 5.2 | 0.00 | 0.00 | 0.00 | 72 | 1013.7 |
| 20260507103019 | 42 | 300 | 5.2 | 7.8 | 0.00 | 0.00 | 0.00 | 70 | 1013.6 |
| 20260507102516 | 42 | 291 | 5.2 | 8.7 | 0.00 | 0.00 | 0.00 | 69 | 1013.5 |
| 20260507102012 | 42 | 274 | 1.7 | 5.2 | 0.00 | 0.00 | 0.00 | 72 | 1013.7 |
| 20260507101507 | 43 | 283 | 2.6 | 5.2 | 0.00 | 0.00 | 0.00 | 70 | 1013.7 |
| 20260507101004 | 43 | 257 | 2.6 | 5.2 | 0.00 | 0.00 | 0.00 | 71 | 1013.6 |
| 20260507100501 | 43 | 264 | 1.7 | 7.8 | 0.00 | 0.00 | 0.00 | 71 | 1013.6 |
| 20260507095959 | 43 | 262 | 1.7 | 2.6 | 0.00 | 0.00 | 0.00 | 72 | 1013.6 |
| 20260507095457 | 43 | 263 | 1.7 | 2.6 | 0.00 | 0.00 | 0.00 | 73 | 1013.6 |
| 20260507094953 | 41 | 284 | 3.5 | 6.1 | 0.00 | 0.00 | 0.00 | 75 | 1013.3 |
| 20260507094449 | 42 | 292 | 3.5 | 5.2 | 0.00 | 0.00 | 0.00 | 74 | 1013.3 |
| 20260507093947 | 42 | 308 | 1.7 | 6.1 | 0.00 | 0.00 | 0.00 | 73 | 1013.3 |
| 20260507093444 | 43 | 247 | 1.7 | 7.0 | 0.00 | 0.00 | 0.00 | 70 | 1013.4 |
| 20260507092943 | 42 | 233 | 1.7 | 2.6 | 0.00 | 0.00 | 0.00 | 66 | 1013.3 |
| 20260507092438 | 42 | 249 | 2.6 | 6.1 | 0.00 | 0.00 | 0.00 | 68 | 1013.2 |
| 20260507091935 | 44 | 192 | 3.5 | 5.2 | 0.00 | 0.00 | 0.00 | 59 | 1013.2 |
| 20260507091432 | 44 | 281 | 4.3 | 8.7 | 0.00 | 0.00 | 0.00 | 58 | 1013.2 |
| 20260507090928 | 44 | 199 | 3.5 | 6.1 | 0.00 | 0.00 | 0.00 | 58 | 1013.0 |
| 20260507090424 | 44 | 80 | 2.6 | 11.3 | 0.00 | 0.00 | 0.00 | 57 | 1013.2 |
| 20260507085921 | 44 | 191 | 2.6 | 5.2 | 0.00 | 0.00 | 0.00 | 55 | 1012.9 |
| 20260507085418 | 44 | 217 | 0.9 | 1.7 | 0.00 | 0.00 | 0.00 | 58 | 1013.0 |
| 20260507084915 | 44 | 144 | 0.0 | 1.7 | 0.00 | 0.00 | 0.00 | 55 | 1012.9 |
| 20260507084412 | 44 | 239 | 4.3 | 6.1 | 0.00 | 0.00 | 0.00 | 55 | 1012.9 |
| 20260507083909 | 43 | 269 | 3.5 | 5.2 | 0.00 | 0.00 | 0.00 | 59 | 1012.8 |
| 20260507083405 | 44 | 303 | 1.7 | 3.5 | 0.00 | 0.00 | 0.00 | 58 | 1012.9 |